• In Kazakhstan
  • List of Countries
  • For 7 days
  • Water Temperature
  • Weather Map
  • News
  • Weather Widgets
  • user-avatar
    Login

    Hourly Weather Pitsunda

    Today, 17 September, Tuesday

    Time Temperature Precipitation Wind Pressure Humidity
    00:00 +21°C° 0 mm 3 mps 760 mmHg 90%
    01:00 +21°C° 0.2 mm 3 mps 760 mmHg 91%
    02:00 +21°C° 0.2 mm 3 mps 760 mmHg 92%
    03:00 +21°C° 0.2 mm 3 mps 760 mmHg 93%
    04:00 +21°C° 0.4 mm 3 mps 760 mmHg 94%
    05:00 +21°C° 0.4 mm 3 mps 760 mmHg 95%
    06:00 +21°C° 0.4 mm 2 mps 760 mmHg 96%
    07:00 +21°C° 1.2 mm 3 mps 760 mmHg 96%
    08:00 +21°C° 1.2 mm 3 mps 760 mmHg 96%
    09:00 +21°C° 1.2 mm 3 mps 760 mmHg 96%
    10:00 +21°C° 1.5 mm 3 mps 760 mmHg 94%
    11:00 +22°C° 1.5 mm 3 mps 760 mmHg 93%
    12:00 +23°C° 1.5 mm 2 mps 760 mmHg 91%
    13:00 +22°C° 0.9 mm 3 mps 760 mmHg 92%
    14:00 +22°C° 0.9 mm 3 mps 760 mmHg 92%
    15:00 +22°C° 0.9 mm 3 mps 760 mmHg 93%
    16:00 +22°C° 0.1 mm 3 mps 760 mmHg 93%
    17:00 +21°C° 0.1 mm 2 mps 760 mmHg 93%
    18:00 +21°C° 0.1 mm 2 mps 760 mmHg 92%
    19:00 +20°C° 0 mm 2 mps 760 mmHg 92%
    20:00 +21°C° 0 mm 1 mps 761 mmHg 92%
    21:00 +20°C° 0 mm 1 mps 761 mmHg 91%
    22:00 +20°C° 0 mm 1 mps 761 mmHg 91%
    23:00 +19°C° 0 mm 1 mps 761 mmHg 91%

    Tomorrow, 18 September, Wednesday

    Time Temperature Precipitation Wind Pressure Humidity
    00:00 +19°C° 0 mm 1 mps 761 mmHg 90%
    01:00 +19°C° 0 mm 1 mps 761 mmHg 90%
    02:00 +19°C° 0 mm 1 mps 761 mmHg 90%
    03:00 +19°C° 0 mm 1 mps 762 mmHg 90%
    04:00 +17°C° 0 mm 2 mps 762 mmHg 89%
    05:00 +17°C° 0 mm 2 mps 762 mmHg 88%
    06:00 +17°C° 0 mm 2 mps 762 mmHg 87%
    07:00 +19°C° 0 mm 3 mps 762 mmHg 81%
    08:00 +21°C° 0 mm 3 mps 762 mmHg 74%
    09:00 +24°C° 0 mm 3 mps 762 mmHg 68%
    10:00 +25°C° 0 mm 4 mps 762 mmHg 63%
    11:00 +27°C° 0 mm 4 mps 761 mmHg 58%
    12:00 +28°C° 0 mm 4 mps 761 mmHg 53%
    13:00 +28°C° 0 mm 4 mps 761 mmHg 54%
    14:00 +28°C° 0 mm 3 mps 760 mmHg 54%
    15:00 +28°C° 0 mm 3 mps 760 mmHg 54%
    16:00 +27°C° 0 mm 3 mps 760 mmHg 62%
    17:00 +25°C° 0 mm 2 mps 759 mmHg 69%
    18:00 +24°C° 0 mm 2 mps 759 mmHg 76%
    19:00 +23°C° 0 mm 2 mps 760 mmHg 70%
    20:00 +23°C° 0 mm 2 mps 760 mmHg 65%
    21:00 +21°C° 0 mm 2 mps 760 mmHg 59%
    22:00 +21°C° 0 mm 2 mps 760 mmHg 55%
    23:00 +21°C° 0 mm 2 mps 760 mmHg 51%

    Day after tomorrow, 19 September, Thursday

    Time Temperature Precipitation Wind Pressure Humidity
    00:00 +21°C° 0 mm 2 mps 760 mmHg 46%
    01:00 +21°C° 0 mm 2 mps 760 mmHg 45%
    02:00 +20°C° 0 mm 2 mps 761 mmHg 43%
    03:00 +20°C° 0 mm 2 mps 761 mmHg 42%
    04:00 +20°C° 0 mm 3 mps 761 mmHg 42%
    05:00 +20°C° 0 mm 3 mps 761 mmHg 42%
    06:00 +20°C° 0 mm 3 mps 761 mmHg 42%
    07:00 +22°C° 0 mm 3 mps 761 mmHg 42%
    08:00 +25°C° 0 mm 3 mps 762 mmHg 42%
    09:00 +28°C° 0 mm 3 mps 762 mmHg 41%
    10:00 +28°C° 0 mm 3 mps 762 mmHg 42%
    11:00 +28°C° 0 mm 4 mps 762 mmHg 43%
    12:00 +29°C° 0 mm 4 mps 763 mmHg 43%
    13:00 +28°C° 0 mm 4 mps 763 mmHg 47%
    14:00 +28°C° 0 mm 5 mps 763 mmHg 50%
    15:00 +28°C° 0 mm 5 mps 763 mmHg 53%
    16:00 +26°C° 0 mm 5 mps 763 mmHg 62%
    17:00 +23°C° 0 mm 5 mps 763 mmHg 72%
    18:00 +22°C° 0 mm 4 mps 763 mmHg 82%
    19:00 +21°C° 0 mm 4 mps 763 mmHg 79%
    20:00 +21°C° 0 mm 4 mps 763 mmHg 75%
    21:00 +20°C° 0 mm 3 mps 763 mmHg 72%
    22:00 +20°C° 0 mm 3 mps 762 mmHg 70%
    23:00 +20°C° 0 mm 2 mps 762 mmHg 68%

    20 September, Friday

    Time Temperature Precipitation Wind Pressure Humidity
    00:00 +19°C° 0 mm 2 mps 762 mmHg 67%
    01:00 +19°C° 0 mm 2 mps 761 mmHg 66%
    02:00 +19°C° 0 mm 2 mps 761 mmHg 66%
    03:00 +19°C° 0 mm 2 mps 761 mmHg 66%
    04:00 +19°C° 0 mm 2 mps 760 mmHg 65%
    05:00 +19°C° 0 mm 2 mps 760 mmHg 64%
    06:00 +19°C° 0 mm 2 mps 760 mmHg 64%
    07:00 +20°C° 0 mm 2 mps 759 mmHg 61%
    08:00 +23°C° 0 mm 2 mps 759 mmHg 58%
    09:00 +25°C° 0 mm 1 mps 759 mmHg 56%
    10:00 +26°C° 0 mm 2 mps 759 mmHg 56%
    11:00 +26°C° 0 mm 2 mps 758 mmHg 57%
    12:00 +27°C° 0 mm 2 mps 758 mmHg 58%
    13:00 +26°C° 0 mm 3 mps 758 mmHg 61%
    14:00 +26°C° 0 mm 3 mps 758 mmHg 65%
    15:00 +25°C° 0 mm 4 mps 759 mmHg 68%
    16:00 +24°C° 0 mm 3 mps 759 mmHg 73%
    17:00 +22°C° 0 mm 3 mps 759 mmHg 79%
    18:00 +21°C° 0 mm 3 mps 760 mmHg 84%
    19:00 +20°C° 0.1 mm 4 mps 760 mmHg 85%
    20:00 +20°C° 0.1 mm 5 mps 760 mmHg 85%
    21:00 +19°C° 0.1 mm 6 mps 761 mmHg 86%
    22:00 +19°C° 0 mm 6 mps 761 mmHg 87%
    23:00 +17°C° 0 mm 7 mps 760 mmHg 88%

    21 September, Saturday

    Time Temperature Precipitation Wind Pressure Humidity
    00:00 +17°C° 0 mm 8 mps 760 mmHg 89%
    01:00 +16°C° 0 mm 7 mps 760 mmHg 87%
    02:00 +16°C° 0 mm 7 mps 760 mmHg 85%
    03:00 +16°C° 0 mm 6 mps 760 mmHg 83%
    04:00 +16°C° 0.2 mm 5 mps 760 mmHg 83%
    05:00 +15°C° 0.2 mm 4 mps 761 mmHg 84%
    06:00 +14°C° 0.2 mm 3 mps 761 mmHg 84%
    07:00 +14°C° 0.7 mm 4 mps 761 mmHg 86%
    08:00 +14°C° 0.7 mm 4 mps 761 mmHg 88%
    09:00 +14°C° 0.7 mm 4 mps 761 mmHg 90%
    10:00 +14°C° 0.6 mm 5 mps 762 mmHg 86%
    11:00 +15°C° 0.6 mm 5 mps 762 mmHg 83%
    12:00 +15°C° 0.6 mm 5 mps 763 mmHg 79%
    13:00 +15°C° 0.3 mm 6 mps 763 mmHg 76%
    14:00 +15°C° 0.3 mm 7 mps 763 mmHg 72%
    15:00 +15°C° 0.3 mm 8 mps 764 mmHg 69%
    16:00 +13°C° 0.2 mm 8 mps 764 mmHg 73%
    17:00 +12°C° 0.2 mm 7 mps 765 mmHg 78%
    18:00 +11°C° 0.2 mm 7 mps 765 mmHg 83%
    19:00 +10°C° 0.1 mm 7 mps 765 mmHg 82%
    20:00 +9°C° 0.1 mm 6 mps 766 mmHg 81%
    21:00 +8°C° 0.1 mm 5 mps 766 mmHg 80%
    22:00 +8°C° 0.1 mm 5 mps 767 mmHg 79%
    23:00 +8°C° 0.1 mm 4 mps 767 mmHg 77%

    22 September, Sunday

    Time Temperature Precipitation Wind Pressure Humidity
    00:00 +9°C° 0.1 mm 3 mps 767 mmHg 76%
    01:00 +10°C° 0.2 mm 3 mps 767 mmHg 78%
    02:00 +10°C° 0.2 mm 3 mps 766 mmHg 80%
    03:00 +10°C° 0.2 mm 2 mps 766 mmHg 82%
    04:00 +10°C° 0.3 mm 3 mps 766 mmHg 84%
    05:00 +10°C° 0.3 mm 3 mps 766 mmHg 86%
    06:00 +10°C° 0.3 mm 3 mps 766 mmHg 87%
    07:00 +11°C° 0.4 mm 3 mps 766 mmHg 87%
    08:00 +12°C° 0.4 mm 3 mps 766 mmHg 87%
    09:00 +12°C° 0.4 mm 3 mps 767 mmHg 87%
    10:00 +13°C° 0.4 mm 3 mps 767 mmHg 84%
    11:00 +14°C° 0.4 mm 3 mps 767 mmHg 81%
    12:00 +16°C° 0.4 mm 2 mps 767 mmHg 78%
    13:00 +16°C° 0.2 mm 3 mps 767 mmHg 79%
    14:00 +16°C° 0.2 mm 3 mps 767 mmHg 79%
    15:00 +16°C° 0.2 mm 3 mps 767 mmHg 80%
    16:00 +14°C° 0 mm 4 mps 767 mmHg 82%
    17:00 +13°C° 0 mm 5 mps 767 mmHg 83%
    18:00 +13°C° 0 mm 5 mps 768 mmHg 85%
    19:00 +12°C° 0 mm 5 mps 768 mmHg 84%
    20:00 +10°C° 0 mm 5 mps 768 mmHg 84%
    21:00 +9°C° 0 mm 5 mps 769 mmHg 83%
    22:00 +10°C° 0 mm 4 mps 769 mmHg 82%
    23:00 +10°C° 0 mm 4 mps 769 mmHg 82%
    Show more